RH
3 4 7 9 9 9 9 10 12 16 14 14 13 12 11 13 13 12 8 8 5 4 12 29 30 30 46 59 56 38 40 45 45 54 48 46 36 28 27 31 36 44 39 40
4 6 7 8 8 7 8 19 14 16 8 10 14 10 10 8 8 8 8 8 6 4 4 9 27 25 36 47 54 53 45 52 48 55 56 49 38 31 30 32 35 42 38 37
6 6 5 4 4 4 24 100 84 81 37 14 58 45 12 10 10 9 7 6 5 5 4 4 8 26 27 47 49 47 48 60 55 61 62 56 50 36 34 34 34 35 41 41
6 6 5 5 6 26 53 86 83 62 51 48 96 95 57 17 19 9 8 7 6 4 4 4 4 6 32 26 50 51 41 54 69 66 66 58 53 50 43 40 40 40 46 42
6 4 4 6 9 92 65 72 35 92 100 98 39 92 18 29 28 49 22 12 6 5 5 4 4 4 7 35 29 50 51 42 70 75 71 63 55 55 55 50 51 46 45 43
4 4 13 49 51 72 93 60 86 89 59 81 84 100 27 80 99 97 100 100 98 45 18 8 5 4 5 9 34 39 52 44 56 82 79 68 62 61 62 58 51 51 47 43
4 8 44 60 89 92 87 89 87 89 82 88 100 100 97 97 97 98 94 100 100 86 7 5 5 4 4 6 20 46 52 51 44 85 86 74 65 69 63 66 59 62 56 44
5 10 18 66 100 82 51 95 100 99 98 70 100 98 100 100 96 100 100 91 95 98 50 12 5 4 3 4 9 35 49 46 41 45 77 78 70 70 71 63 64 64 55 48
6 11 36 46 50 54 65 72 66 89 71 48 55 98 98 97 100 100 100 86 54 57 76 38 14 7 4 4 8 25 42 39 37 44 53 76 72 65 72 64 68 68 53 54
8 11 34 48 47 49 94 100 76 96 96 97 59 100 100 100 100 100 94 85 98 72 53 54 26 8 5 3 5 13 40 60 74 45 46 68 77 68 67 70 73 66 57 57
9 15 21 37 42 40 43 60 72 91 99 93 73 88 100 89 100 87 92 98 99 66 63 50 36 14 5 5 4 7 30 36 69 35 50 58 80 84 67 68 83 65 59 56
11 9 12 18 31 36 35 30 34 66 84 84 74 42 87 98 100 74 63 77 100 67 38 21 14 8 10 15 6 6 10 42 43 29 57 57 78 87 80 71 87 74 59 55
10 10 8 8 14 38 64 54 57 46 50 51 65 38 53 61 64 53 54 74 85 80 44 24 8 5 20 50 22 4 8 22 43 31 50 71 72 95 94 86 92 93 63 56
8 11 10 11 11 13 48 97 96 66 51 38 29 27 37 52 47 55 46 59 76 91 72 42 15 29 12 61 71 6 7 8 37 36 33 67 69 74 83 94 97 89 89 62
10 11 10 14 17 15 14 16 85 98 85 46 24 25 46 64 66 76 69 65 76 74 100 100 50 96 43 55 80 24 6 8 9 43 33 56 65 60 76 84 93 94 96 81
9 11 10 28 46 61 79 36 14 14 29 17 16 18 83 59 59 99 100 78 71 90 99 100 100 66 49 30 54 42 9 7 9 12 42 33 70 64 82 92 100 99 95 97
9 12 11 42 83 91 88 98 94 82 47 15 15 41 100 96 98 100 100 100 100 100 100 99 100 99 100 29 38 27 28 6 8 18 35 43 44 70 80 86 88 97 94 96
9 13 16 42 92 86 100 83 99 100 100 100 100 100 98 91 83 100 100 100 100 99 99 99 100 100 100 74 80 46 17 8 5 6 27 46 46 58 81 99 97 87 92 92
10 13 30 56 69 82 99 84 94 94 98 100 97 96 86 88 76 100 100 100 100 100 100 100 98 99 100 100 86 100 42 17 6 5 6 29 50 52 67 93 96 95 93 98
13 19 41 82 73 44 75 100 58 76 86 100 88 99 84 66 83 100 100 100 100 100 100 100 100 100 100 100 100 85 100 87 17 6 5 6 23 47 70 67 98 96 97 96
17 18 25 92 94 86 99 75 65 84 100 97 98 100 78 53 81 100 100 100 100 98 92 99 100 100 96 100 100 100 74 97 67 17 6 5 7 20 59 64 64 95 95 98
22 19 51 71 95 93 94 100 85 68 88 95 100 85 86 85 83 100 100 100 100 100 97 97 100 100 100 99 100 100 100 100 99 65 21 6 6 8 31 60 61 64 94 96
24 20 19 68 55 49 43 42 41 34 62 57 57 62 73 76 76 75 96 100 89 89 89 88 95 100 100 100 100 100 100 100 100 100 72 16 7 6 6 28 50 58 56 79
24 20 19 19 65 43 41 43 49 60 92 35 33 47 56 60 64 61 69 90 100 96 100 78 70 88 98 98 100 100 98 100 100 100 100 100 24 8 6 5 23 32 55 55
30 28 22 16 23 27 29 98 100 78 46 52 51 42 38 46 54 51 53 61 73 82 84 77 66 63 82 92 94 99 100 100 100 100 100 100 89 43 9 6 4 16 41 52
39 35 26 18 27 26 24 40 39 32 39 46 46 56 49 39 38 40 39 42 56 60 66 72 68 61 60 68 71 94 98 100 100 100 100 100 100 100 53 22 8 6 13 42
Wind_Speed
65 65 62 61 60 59 59 60 66 69 68 66 67 71 73 71 76 77 78 70 66 66 64 61 62 63 62 62 62 61 54 51 47 47 41 34 40 37 36 34 31 29 27 25
58 52 48 48 45 42 43 43 46 50 62 67 66 74 78 76 75 76 78 76 72 67 66 64 64 66 64 62 65 65 59 55 52 48 44 34 41 41 40 40 35 31 31 28
43 38 37 39 39 38 35 29 34 36 38 45 48 57 72 83 83 84 82 80 75 70 68 64 65 62 68 66 67 71 67 61 57 51 45 42 43 48 46 43 39 34 34 31
35 35 35 35 35 33 34 30 33 36 36 37 27 37 43 61 66 77 79 84 81 76 72 69 65 67 69 75 70 73 73 65 61 56 49 47 42 43 39 39 39 36 34 35
34 34 34 33 30 21 34 27 28 28 31 32 35 34 32 30 37 40 59 78 84 84 81 76 72 64 70 73 76 73 78 70 65 61 54 51 47 45 42 41 42 40 37 38
33 33 32 25 23 19 19 17 21 22 21 22 9 17 19 17 27 30 31 33 35 53 76 83 85 74 70 67 71 77 79 77 70 64 59 57 51 49 45 43 42 41 40 40
32 30 19 20 20 21 18 19 17 19 21 17 15 19 19 21 29 34 36 40 43 47 76 83 84 85 79 67 66 74 80 82 75 69 66 62 56 52 49 45 44 43 43 42
33 24 24 18 23 19 19 17 20 24 18 21 15 2 23 15 32 34 36 43 44 43 53 69 81 86 85 75 62 71 78 82 76 71 70 67 63 53 52 45 46 46 45 42
34 26 19 19 25 29 24 22 27 29 24 21 16 12 23 28 35 36 39 44 48 49 49 52 67 76 85 84 74 79 79 80 78 75 73 70 66 58 55 47 47 47 46 44
33 27 16 18 22 18 21 22 18 24 22 19 25 20 23 18 16 13 26 37 47 41 39 50 53 63 78 84 80 78 88 79 67 77 76 74 69 62 58 51 48 50 47 45
36 30 18 17 21 20 23 26 20 21 26 27 26 24 10 19 27 26 23 20 23 52 48 46 51 51 58 72 79 76 83 88 78 76 76 77 71 67 62 54 50 52 48 48
35 37 28 18 16 22 26 28 27 29 31 34 35 32 30 22 28 26 27 24 19 25 32 40 44 48 54 60 71 75 77 86 88 81 76 79 77 71 66 58 53 54 50 50
37 35 36 24 18 20 24 25 28 33 38 37 42 43 33 34 32 25 26 25 23 20 30 40 41 45 52 50 66 77 79 84 90 87 79 78 79 75 71 64 58 57 55 53
38 34 34 28 20 23 30 32 33 35 38 34 36 37 29 32 28 22 24 27 26 23 21 30 40 42 50 50 54 72 76 79 86 89 83 79 78 76 73 67 63 62 60 58
38 35 33 24 27 20 19 30 39 41 43 42 27 30 16 24 16 16 18 23 24 24 21 24 30 32 46 48 48 65 74 76 77 87 86 82 82 78 76 73 71 67 65 63
37 34 35 18 22 25 24 18 22 34 44 42 26 17 19 20 22 14 17 19 21 22 19 15 29 34 39 44 43 55 66 72 77 76 85 83 81 81 79 79 78 75 71 70
36 33 33 20 23 26 16 9 12 13 11 11 15 12 14 24 24 16 16 17 18 18 16 15 15 24 32 44 42 51 61 70 71 79 81 84 83 82 81 78 79 77 74 72
34 32 30 24 21 17 10 4 6 8 9 8 11 20 21 19 22 17 14 15 15 17 16 15 19 13 23 33 38 44 56 63 71 73 78 83 86 85 84 82 81 79 81 79
34 32 24 19 16 11 8 9 10 6 16 17 17 22 27 19 23 25 14 14 14 16 16 18 13 16 15 26 36 40 47 58 66 71 74 82 87 88 86 86 85 83 82 78
31 26 20 14 14 11 6 13 13 16 13 18 25 24 24 24 24 22 24 21 19 18 18 15 21 17 17 14 38 36 40 46 59 66 71 74 83 88 92 88 87 88 80 75
28 24 18 13 15 14 15 21 22 14 16 23 20 23 32 31 25 16 20 20 19 18 20 18 15 19 22 17 19 39 41 41 48 61 67 73 77 81 92 96 91 89 89 87
30 28 16 13 15 17 15 17 18 23 29 34 27 27 27 31 32 27 15 18 21 24 23 24 21 17 17 27 19 21 26 45 46 55 67 68 74 81 87 94 96 92 91 90
30 28 26 17 18 22 22 27 29 26 31 35 39 33 33 32 34 34 29 19 22 22 20 21 22 23 17 15 22 33 23 20 25 49 60 70 71 76 81 90 92 95 94 93
28 31 33 26 14 22 24 23 24 22 23 25 32 36 36 34 30 31 31 28 21 23 22 20 23 27 26 20 14 18 27 27 21 27 47 60 72 73 78 79 90 91 94 95
31 33 32 30 18 19 15 9 9 26 22 21 23 24 32 35 32 30 29 31 32 27 24 26 26 25 27 25 24 17 15 24 28 19 34 42 67 71 77 79 80 88 96 95
36 33 32 30 21 21 16 19 22 22 22 21 24 24 26 30 35 35 33 31 31 34 29 28 29 28 25 25 25 27 23 18 21 30 29 23 36 67 69 76 80 83 89 99
Wind_Direction
296 292 290 285 281 280 276 271 264 256 253 257 255 254 248 245 245 246 246 239 236 238 236 233 231 231 229 229 234 236 229 231 230 233 239 240 237 231 232 235 235 236 241 242
299 296 291 287 285 282 276 272 266 264 257 258 257 253 250 246 243 250 250 245 237 236 239 233 231 232 232 232 231 234 233 231 232 232 238 237 235 229 229 233 233 231 240 240
304 298 292 287 287 286 281 279 277 275 266 257 251 251 249 248 249 247 247 244 240 236 240 238 234 231 231 229 227 235 232 230 231 233 235 236 231 228 228 232 233 232 236 239
306 300 297 293 289 287 283 278 277 268 271 267 252 262 256 250 247 246 248 248 243 239 236 239 235 233 231 230 226 228 233 230 231 231 233 235 237 235 237 238 243 236 233 241
310 305 298 292 287 270 277 273 287 276 271 270 267 258 271 264 257 255 249 248 244 238 238 236 237 232 233 234 231 226 233 229 227 231 232 233 237 235 232 232 236 236 234 239
315 309 308 298 300 288 288 282 281 300 299 279 333 271 274 274 255 246 232 232 232 235 239 234 230 231 227 230 233 230 228 232 226 225 231 231 235 236 233 234 236 240 234 237
321 315 291 285 272 272 276 282 290 287 283 274 258 249 245 235 245 244 233 224 227 232 234 233 233 231 221 223 228 230 229 228 228 222 228 230 232 237 237 238 236 239 236 237
329 323 302 268 264 255 278 262 286 283 282 266 276 315 247 247 243 240 230 229 227 227 231 233 233 232 227 218 219 232 228 231 230 224 224 228 231 232 236 243 237 238 235 234
330 332 306 278 262 265 272 266 250 258 264 269 249 243 259 261 264 261 255 247 248 241 241 238 234 233 230 219 220 219 226 232 227 227 224 224 229 231 233 240 239 237 233 232
333 340 312 284 287 279 268 275 258 264 261 268 252 242 269 275 301 253 274 267 247 246 236 237 236 234 233 224 215 225 222 215 239 224 224 224 225 230 232 235 237 235 233 233
335 330 323 292 281 278 265 266 257 260 259 261 253 229 296 311 311 305 297 305 258 246 245 235 235 236 232 230 221 220 226 223 222 218 223 223 224 226 230 231 235 233 231 230
334 331 325 299 273 266 263 263 253 253 249 250 257 235 265 278 299 311 310 301 283 253 254 240 230 231 232 226 222 219 222 225 228 219 217 224 224 226 229 228 229 231 228 228
336 336 330 321 281 258 255 255 252 250 254 249 256 252 259 276 281 296 307 305 298 249 245 232 231 231 231 224 218 218 221 223 225 224 216 219 222 225 227 226 224 227 228 226
338 337 332 330 305 261 245 244 247 251 254 260 260 269 260 275 280 288 290 293 292 255 242 240 224 236 232 225 219 217 220 224 226 227 220 216 222 223 227 227 227 223 230 228
339 339 338 328 313 307 280 253 245 250 259 261 268 274 282 268 261 294 284 288 298 291 263 212 223 222 235 231 224 215 219 222 224 226 227 219 220 219 222 226 229 224 226 230
339 341 340 338 327 331 313 307 260 249 254 267 281 270 255 272 274 272 272 278 293 301 299 292 223 242 247 234 227 215 218 223 224 224 225 225 223 222 223 223 227 227 223 226
339 341 341 354 337 334 335 20 48 6 323 289 268 253 277 274 272 260 288 289 290 289 284 272 272 237 210 231 230 219 216 219 223 224 222 225 225 225 227 229 229 232 231 226
339 341 344 348 344 354 311 172 27 5 285 290 263 255 263 270 260 257 286 295 309 300 282 268 266 263 217 231 228 225 219 218 222 223 222 222 228 227 225 228 231 231 234 234
340 341 344 332 342 0 26 335 285 277 250 263 253 261 265 270 258 257 281 285 289 287 286 276 278 282 287 217 229 219 228 221 220 223 223 221 224 229 229 227 228 233 233 235
338 333 333 321 332 317 289 342 292 291 298 280 262 268 262 267 256 280 278 273 287 299 300 291 268 267 263 232 219 222 224 231 226 222 224 223 224 225 230 232 230 231 234 233
332 325 320 306 304 306 285 292 284 253 293 285 277 266 261 265 253 279 281 264 274 277 285 296 278 267 259 260 214 219 229 229 230 227 223 223 223 225 226 228 231 234 235 236
326 322 313 292 283 292 295 278 285 258 260 268 284 287 281 271 260 267 281 261 261 262 270 286 295 285 272 262 221 224 226 223 233 230 226 223 223 224 225 228 229 232 235 237
322 313 308 286 277 277 274 277 281 284 267 269 271 276 279 281 279 279 265 274 274 275 278 282 290 294 294 271 259 250 247 237 228 219 230 225 225 224 226 227 230 231 233 237
315 307 310 307 281 279 280 284 294 297 287 290 272 265 268 274 278 281 277 267 274 279 273 282 290 293 291 287 273 263 253 255 257 226 216 222 228 225 226 227 229 231 233 235
301 308 312 314 303 291 282 292 293 293 300 305 303 286 272 272 274 276 278 274 272 275 280 277 279 282 287 290 290 282 271 246 247 246 227 226 230 232 225 226 227 230 231 234
296 310 314 312 292 286 277 268 280 283 292 300 317 303 281 276 277 276 272 276 273 275 268 272 272 274 278 279 284 285 282 272 248 242 244 244 230 226 234 230 228 229 230 232